Weather Roundup
Issued by NWS Corpus Christi, TX

Home | Current Version | Previous Version | Text Only | Print | Product List | Glossary On
Versions: 1 2 3 4 5 6 7 8 9 10 11 12 13 14 15 16 17 18 19 20 21 22 23 24 25 26 27 28 29 30 31 32 33 34 35 36 37 38 39 40 41 42 43 44 45 46 47 48 49 50
592
ASUS44 KCRP 101110
HRRCRP

SOUTH TEXAS REGIONAL WEATHER ROUNDUP
NATIONAL WEATHER SERVICE CORPUS CHRISTI TX
500 AM CST WED FEB 10 2016


TXZ229>244-101200-
...CORPUS CHRISTI AREA OBSERVATIONS...

CITY           SKY/WX    TMP DP  RH WIND       PRES   REMARKS
CORPUS CHRISTI CLEAR     42  31  64 SW3       30.32S
NAS CORPUS CHR CLEAR     48  40  73 SW9       30.32R
ROCKPORT       CLEAR     47  39  74 W3        30.32S
KINGSVILLE NAS CLEAR     43  36  76 W5        30.32S
ALICE            N/A     45  34  65 W8        30.31S
FALFURRIAS     CLEAR     44  34  67 CALM      30.32S
$$

...VICTORIA AREA OBSERVATIONS...

CITY           SKY/WX    TMP DP  RH WIND       PRES   REMARKS
VICTORIA       CLEAR     37  35  92 N5        30.34R
BEEVILLE       FAIR      47  35  62 W3        30.31S
PLEASANTON     CLEAR     38  30  73 CALM      30.32S
SAN ANTONIO    CLEAR     47  30  51 N5        30.33S
$$

...LAREDO AREA OBSERVATIONS...

CITY           SKY/WX    TMP DP  RH WIND       PRES   REMARKS
LAREDO         CLEAR     45  33  63 E5        30.32S
COTULLA        CLEAR     39  26  59 N6        30.32S
DEL RIO        CLEAR     39  26  59 CALM      30.30S
MCALLEN        CLEAR     47  39  74 CALM      30.34R
HEBBRONVILLE   NOT AVBL
$$

...OTHER TEXAS OBSERVATIONS...

CITY           SKY/WX    TMP DP  RH WIND       PRES   REMARKS
BROWNSVILLE    CLEAR     46  42  86 SW5       30.34S
HOUSTON        CLEAR     44  28  53 CALM      30.35R
COL. STATION   CLEAR     44  27  51 NE3       30.34S
AUSTIN         CLEAR     32  29  88 CALM      30.34F
WACO           CLEAR     29  25  85 SW3       30.34S
FORT WORTH     CLEAR     37  25  61 N3        30.32S
WICHITA FALLS  CLEAR     32  25  75 SW8       30.29F
LUBBOCK        CLOUDY    27  17  66 W8        30.30F
EL PASO        CLEAR     37  18  46 NE5       30.34S
$$

...MARINE OBSERVATIONS...

STATION/POSITION TIME  SKY/WX   TEMP    WIND        PRES    VSBY  WAVE   SWELL
                                AIR SEA DIR/SP/G                  HT/PER HT/PER
                 (UTC)          (F)     (DEG/KT/KT) (MB)    (MI)  (FT/S) (FT/S)
PORT ARANSAS     1100            55 59  230/  8/  9 1027.3R
BUOY 90 E PORT A 1050            63 67  360/ 14/ 16 1026.9R         2/ 3
BUOY 45 SE BAFFI 1050            62 66  240/ 14/ 17 1026.3R         2/ 3
BUOY 200 E PT IS 1050                                 N/A           3/ 6   3/ 6
BUOY 15 E GALVES 1050            54 57  350/ 16/ 17 1027.1R         2/ 3
$$




USA.gov is the U.S. government's official web portal to all federal, state and local government web resources and services.